+ View the NASA Portal
+ Center for Near-Earth Object Studies
IMPORTANT:
The SSD Announcement email list is now available. Major changes are coming in the near future, including possible hostname and/or URL changes. To be notified of such changes, subscribe to this email list.
Please visit
this page
for more details.
Don't show this message again
JPL Small-Body Database Browser
Search:
[
help
]
183535 (2003 GN45)
Classification:
Main-belt Asteroid
SPK-ID:
2183535
[
Ephemeris
|
Orbit Diagram
|
Orbital Elements
|
Mission Design
|
Physical Parameters
|
Discovery Circumstances
|
Close-Approach Data
]
[ show orbit diagram ]
Orbital Elements at Epoch 2458600.5 (2019-Apr-27.0) TDB
Reference:
JPL 14
(heliocentric ecliptic J2000)
Element
Value
Uncertainty (1-sigma)
Units
e
.1091081617280967
5.3907e-08
a
3.088325502993582
3.5064e-08
au
q
2.751363984543953
1.6828e-07
au
i
10.91453004210236
6.6862e-06
deg
node
164.0536978186285
2.7913e-05
deg
peri
137.7022546830238
3.8751e-05
deg
M
246.8165406195538
2.714e-05
deg
t
p
2459223.751728364452
(2021-Jan-09.25172836)
0.00015198
TDB
period
1982.362294273233
5.43
3.3761e-05
9.243e-08
d
yr
n
.1816015170587079
3.0928e-09
deg/d
Q
3.425287021443211
3.889e-08
au
Orbit Determination Parameters
# obs. used (total)
399
data-arc span
8074 days (22.11 yr)
first obs. used
1997-03-03
last obs. used
2019-04-11
planetary ephem.
DE431
SB-pert. ephem.
SB431-N16
condition code
0
norm. resid. RMS
.58683
source
ORB
producer
Otto Matic
solution date
2019-Jul-13 17:33:56
Additional Information
Earth MOID
= 1.74739 au
Jupiter MOID
= 1.92202 au
T_jup
= 3.189
[ show covariance matrix ]
[
Ephemeris
|
Orbit Diagram
|
Orbital Elements
|
Mission Design
|
Physical Parameters
|
Discovery Circumstances
|
Close-Approach Data
]
Physical Parameter Table
Parameter
Symbol
Value
Units
Sigma
Reference
Notes
absolute magnitude
H
15.2
n/a
MPO433200
diameter
diameter
3.683
km
0.555
urn:nasa:pds:neowise_diameters_albedos::2.0[mainbelt] (http://adsabs.harvard.edu/abs/2011ApJ...741...68M)
geometric albedo
albedo
0.119
0.025
urn:nasa:pds:neowise_diameters_albedos::2.0[mainbelt] (http://adsabs.harvard.edu/abs/2011ApJ...741...68M)
183535 (2003 GN45)
Discovered 2003-Apr-08 by NEAT at Palomar
Reference:
20080420/Numbers.arc
Last Updated:
2008-04-23
[ hide close-approach data ]
Close-Approach Data
...sorted by
Date/Time (TDB)
Date/Time (TDB)
Time Uncertainty
(days_HH:MM)
Body
Nominal Distance (au)
Minimum Distance (au)
Maximum Distance (au)
V-relative (km/s)
V-infinity (km/s)
JD (TDB)
Time Uncertainty (minutes)
Semi-major axis (km)
Semi-minor axis (km)
range-LOV angle (deg)
N-sigma
BP
Orbit Ref.
Reference
Modified
1930-Dec-15 01:21
00:05
Jupiter
1.9308027878429
1.93080200228947
1.9308035733959
2.51063778186951
2.32936117415306
2426325.555975384
4.80540498221734
102.549248660538
25.7189989843308
77.5259395020611
1108863.11053879
T
14
CATAB v2.0e-lin.ifort 2019-Jul-13 17:33:59
2019-Jul-13 17:34
1940-Oct-01 13:17
00:04
Jupiter
1.93247650544968
1.93247585187402
1.93247715902688
3.79805463944114
3.68084234239207
2429904.053803691
3.94045867680697
255.700322981617
24.904560045577
89.1425021958315
1959200.5254579
T
14
CATAB v2.0e-lin.ifort 2019-Jul-13 17:33:59
2019-Jul-13 17:34
1991-May-02 18:57
00:01
Jupiter
1.99084279749608
1.9908420984804
1.99084349651199
3.4279098328891
3.30146138701493
2448379.289720080
1.22750282899076
105.87548347793
26.0180740869344
-84.0561769284039
1954727.90518935
T
14
CATAB v2.0e-lin.ifort 2019-Jul-13 17:33:59
2019-Jul-13 17:34
2001-Feb-28 18:01
< 00:01
Jupiter
1.92047285218927
1.92047216879194
1.9204735355867
2.52866450235186
2.3477747518448
2451969.250678925
0.815102946265499
64.8505775760824
10.153992527397
64.6215611957092
2355815.33342924
T
14
CATAB v2.0e-lin.ifort 2019-Jul-13 17:33:59
2019-Jul-13 17:34
2061-Aug-11 16:03
00:03
Jupiter
1.9323913700936
1.93239072526569
1.93239201492151
2.68845619647573
2.52014670298173
2474048.168816830
2.7061660119292
100.010744681412
26.9331665963597
80.4583856774788
1564882.81694966
T
14
CATAB v2.0e-lin.ifort 2019-Jul-13 17:33:59
2019-Jul-13 17:34
2071-May-28 18:05
00:03
Jupiter
1.94696983156547
1.94696913898902
1.94697052414269
3.59981482624596
3.47686261957816
2477625.253709876
3.15448201489114
190.513594968833
25.4834859219313
89.0219954439079
1874251.64835341
T
14
CATAB v2.0e-lin.ifort 2019-Jul-13 17:33:59
2019-Jul-13 17:34
2121-Dec-22 06:38
00:06
Jupiter
1.99474809096185
1.99474689795075
1.99474928399438
3.56412408000195
3.44292431562177
2496094.776719601
5.57147981534952
391.410233902612
25.000247987034
-84.8198929741823
2010023.63695061
T
14
CATAB v2.0e-lin.ifort 2019-Jul-13 17:33:59
2019-Jul-13 17:34
2131-Nov-02 13:15
00:07
Jupiter
1.93104317701892
1.93104245408168
1.93104389995605
2.46564800141716
2.28082237290666
2499697.051807061
6.96253236380491
190.568129881384
19.12481798423
80.1775271497613
2158912.39440025
T
14
CATAB v2.0e-lin.ifort 2019-Jul-13 17:33:59
2019-Jul-13 17:34
2192-Apr-10 18:53
00:10
Jupiter
1.93257745464187
1.93257674019025
1.93257816909767
2.88862619578759
2.73268885806478
2521772.286748773
9.86572015887795
361.191197155195
25.0888160355169
83.4214202227854
1400682.04327731
T
14
CATAB v2.0e-lin.ifort 2019-Jul-13 17:33:59
2019-Jul-13 17:34
Alternate Designations
2003 GN45
= 2008 CM85
[
Ephemeris
|
Orbit Diagram
|
Orbital Elements
|
Mission Design
|
Physical Parameters
|
Discovery Circumstances
|
Close-Approach Data
]
2019-Dec-12 01:21 UT
(server date/time)
Site Manager:
Ryan S. Park
Webmaster
:
Alan B. Chamberlin